Regional Weather Roundup
Issued by NWS

Home | Current Version | Previous Version | Graphics & Text | Print | Product List | Glossary On
Versions: 1 2 3 4 5 6 7 8 9 10 11 12 13 14 15 16 17 18 19 20 21 22 23 24 25 26 27 28 29 30 31 32 33 34 35 36 37 38 39 40 41 42 43 44 45 46 47 48 49 50
000
ASUS43 KIND 290309
RWRIN

WEATHER ROUNDUP FOR INDIANA
NATIONAL WEATHER SERVICE INDIANAPOLIS IN
1100 PM EDT FRI AUG 28 2015

NOTE: "FAIR" INDICATES FEW OR NO CLOUDS BELOW 12,000 FEET WITH NO
SIGNIFICANT WEATHER AND/OR OBSTRUCTIONS TO VISIBILITY.

* - STATION DOES NOT REPORT WEATHER SUCH AS PRECIPITATION OR FOG.

+ - STATION NOT QUALITY CONTROLLED BY THE NATIONAL WEATHER SERVICE.
    USE DATA WITH CAUTION...ESPECIALLY DEWPOINT AND RELATIVE
    HUMIDITY OBSERVATIONS.

INZ001>003-010>013-019-020-290400-
NORTHWEST INDIANA

CITY           SKY/WX    TMP DP  RH WIND       PRES   REMARKS
KNOX *+        CLOUDY    63  61  94 E5        30.10S
LA PORTE +     CLOUDY    67  67 100 CALM      30.11S
MICHIGAN CITY+ CLOUDY    66  64  94 CALM      30.10S
MONTICELLO +   CLOUDY    68  60  75 CALM      30.09R
RENSSELAER +   MOCLDY    64  61  88 E6        30.09S
VALPARAISO     MOCLDY    66  61  84 E6        30.09F

$$

LMZ046-743>745-290400-
SOUTHERN LAKE MICHIGAN

STATION/POSITION TIME  TEMP    WIND        PRES    WAVE
                       AIR SEA DIR/SP/G            HT
                 (UTC) (F)     (DEG/KT/KT) (MB)    (FT)
BURNS HARBOR     0200   74     160/  5/  9 1019.3R
MICHIGAN CITY    0200   70     110/  3/  3   N/A
5NW MICH CITY    0300   71 71  120/  6/  8   N/A     0

$$

INZ004-005-014>016-021>024-290400-
NORTH CENTRAL INDIANA

CITY           SKY/WX    TMP DP  RH WIND       PRES   REMARKS
GOSHEN         CLOUDY    67  61  81 SE6       30.12S
LOGANSPORT +   MOCLDY    61  55  82 E7        30.11S HAZE
PERU/GRISSOM   CLOUDY    66  59  79 SE5       30.10S
ROCHESTER +    CLOUDY    66  63  88 E3        30.12S
SOUTH BEND     CLOUDY    70  61  73 SE5       30.12R
WARSAW +       CLOUDY    64  61  88 CALM      30.12F

$$

INZ006>009-017-018-025>027-290400-
NORTHEAST INDIANA

CITY           SKY/WX    TMP DP  RH WIND       PRES   REMARKS
ANGOLA *+      PTCLDY    66  59  77 CALM      30.15R
AUBURN +       CLOUDY    64  59  82 CALM      30.15S
FORT WAYNE     CLOUDY    66  60  81 SE5       30.13S
HUNTINGTON +   CLOUDY    68  55  64 SE3       30.13S

$$

INZ028-029-035-036-043>045-051>053-290400-
WEST CENTRAL INDIANA

CITY           SKY/WX    TMP DP  RH WIND       PRES   REMARKS
CRAWFORDSVL +  MOCLDY    62  57  83 SE5       30.09F
GREENCASTLE +  PTCLDY    61  55  82 CALM      30.10S
LAFAYETTE      CLOUDY    68  59  73 SE5       30.08S
TERRE HAUTE    PTCLDY    64  59  83 E6        30.08S

$$

INZ030>032-037>040-046>048-054>057-064-065-290400-
CENTRAL INDIANA

CITY           SKY/WX    TMP DP  RH WIND       PRES   REMARKS
FISHERS *+     CLOUDY    66  59  77 E5        30.11S
FRANKFORT +    MOCLDY    63  60  91 E7        30.12S
GREENWOOD *+   MOCLDY    66  55  68 E3        30.12R
INDIANAPOLIS   MOCLDY    69  57  65 SE7       30.09R
-EAGLE CREEK   MOCLDY    69  57  65 SE5       30.10S
KOKOMO *+      CLOUDY    63  55  77 SE6       30.12S
MARION +       CLOUDY    63  54  72 E6        30.13S
MT COMFORT *+  CLOUDY    63  57  82 CALM      30.12S
SHELBYVILLE    CLOUDY    63  58  83 E6        30.11R
ZIONSVILLE +   CLOUDY    65  57  77 E3        30.12S

$$

INZ033-034-041-042-049-050-058-059-290400-
EAST CENTRAL INDIANA

CITY           SKY/WX    TMP DP  RH WIND       PRES   REMARKS
MUNCIE         MOCLDY    61  59  93 E3        30.13R

$$

INZ060-061-067>069-081>083-085>088-290400-
SOUTHWEST INDIANA

CITY           SKY/WX    TMP DP  RH WIND       PRES   REMARKS
EVANSVILLE     CLEAR     72  64  76 CALM      30.08R
HUNTINGBURG *+ CLEAR     66  61  82 SE3       30.09S
WASHINGTON +   CLEAR     64  60  87 CALM      30.08R

$$

INZ062-063-066-070>080-084-089>092-290400-
SOUTH CENTRAL AND SOUTHEAST INDIANA

CITY           SKY/WX    TMP DP  RH WIND       PRES   REMARKS
BLOOMINGTON    PTCLDY    61  59  93 CALM      30.11R
MADISON *+     CLEAR     63  59  88 E3        30.14R
NORTH VERNON + PTCLDY    66  63  88 CALM      30.13R
SEYMOUR +      PTCLDY    63  59  88 CALM      30.11R

$$



USA.gov is the U.S. government's official web portal to all federal, state and local government web resources and services.